Gibraltar Airport

Airport
ICAO code: 
LXGB
IATA Code: 
GIB
Summary
ICAO Region: 
EUR
Territory: 
Location: 
Gibraltar, Gibraltar
Serving: 
Gibraltar
Elevation: 
10 ft
Coordinates: 
Aerial View: 
36° 9' 3.583" N, 5° 20' 54.021" W
Airport RE: 
Crosswind Landings
Airport WX: 
Low Level Turbulence
Metar
Observation
LXGB 040850Z 24005KT CAVOK 23/15 Q1017 NOSIG RMK BLU BLU
Station
Gibraltar
Date/Time
2022-07-04 08:50:00
Wind direction
240°
Wind speed
05 kts
Lowest cloud amount
clouds and visibility OK
Temperature
23°C
Dew point
15°C
Humidity
60%
QNH
1017 hPa
Weather condition
n/a

International airport serving the British Overseas Territory of Gibraltar.

Climatology

Dry-summer subtropical ”Mediterranean" climate (Köppen climate classification Csa) - characterized by hot, dry summers and mild winters. During the summer, subtropical high pressure cells dominate, making rainfall unlikely except for the occasional thunderstorm. In the winter, periodic storms bring rain.

Runways

Designator Length Width Surface Rops
9/27 1829 46 ASP Yes/Yes
Airport map: 
Aerial View: 

SKYbrary Partners:

Safety knowledge contributed by: